FW6486 Weather Reports


Display with metric or nautical units.
time (UTC)temp
F
wind
direction
speed
MPH
gust
MPH
rain 1hr
in
rain 24hr
in
rain mn
in
humidity
%
barometer
mb
20210119184439 35 41 8.0 15.0 0.00 0.00 0.00 59 1031.4
20210119183450 35 34 7.0 16.0 0.00 0.00 0.00 59 1031.6
20210119182509 35 25 8.0 16.0 0.00 0.00 0.00 59 1031.8
20210119181529 35 20 9.0 16.0 0.00 0.00 0.00 58 1031.8
20210119180517 35 63 9.0 16.0 0.00 0.00 0.00 57 1031.7
20210119175449 35 39 9.0 17.0 0.00 0.00 0.00 59 1031.9
20210119174455 34 41 10.0 17.0 0.00 0.00 0.00 58 1031.7
20210119173525 35 14 8.0 16.0 0.00 0.00 0.00 58 1031.9
20210119172518 35 32 8.0 14.0 0.00 0.00 0.00 58 1031.8
20210119171454 35 34 7.0 19.0 0.00 0.00 0.00 60 1031.9
20210119170521 34 38 10.0 19.0 0.00 0.00 0.00 59 1031.6
20210119165525 34 6 9.0 17.0 0.00 0.00 0.00 59 1031.4
20210119164523 34 23 8.0 14.0 0.00 0.00 0.00 60 1031.4
20210119163546 34 32 7.0 14.0 0.00 0.00 0.00 61 1031.4
20210119162523 34 328 7.0 16.0 0.00 0.00 0.00 60 1031.4
20210119161529 34 341 9.0 15.0 0.00 0.00 0.00 60 1031.3
20210119160537 34 21 7.0 15.0 0.00 0.00 0.00 63 1031.0
20210119155520 33 26 8.0 15.0 0.00 0.00 0.00 65 1030.7
20210119154459 33 20 5.0 11.0 0.00 0.00 0.00 67 1030.4
20210119153516 33 25 4.0 11.0 0.00 0.00 0.00 68 1030.4
20210119152436 32 3 6.0 11.0 0.00 0.00 0.00 69 1030.4
20210119151446 32 30 4.0 9.0 0.00 0.00 0.00 68 1030.0
20210119150431 32 333 3.0 11.0 0.00 0.00 0.00 68 1029.6
20210119145431 32 51 4.0 11.0 0.00 0.00 0.00 68 1029.6
20210119144433 32 32 5.0 16.0 0.00 0.00 0.00 67 1029.4
20210119143427 32 23 7.0 16.0 0.00 0.00 0.00 66 1029.0
20210119142408 32 9 8.0 16.0 0.00 0.00 0.00 65 1028.7
20210119141422 32 31 8.0 16.0 0.00 0.00 0.00 63 1028.4
20210119140409 33 37 6.0 15.0 0.00 0.00 0.00 61 1028.2
20210119135335 33 42 5.0 13.0 0.00 0.00 0.00 60 1028.0
20210119134354 33 56 7.0 13.0 0.00 0.00 0.00 60 1027.8
20210119133416 33 22 7.0 13.0 0.00 0.00 0.00 60 1027.4
20210119132426 34 33 7.0 16.0 0.00 0.00 0.00 58 1026.9
20210119131425 34 0 6.0 16.0 0.00 0.00 0.00 57 1026.9
20210119130417 34 37 5.0 12.0 0.00 0.00 0.00 57 1026.6
20210119125341 34 14 7.0 15.0 0.00 0.00 0.00 56 1026.5
20210119124350 34 36 7.0 16.0 0.00 0.00 0.00 57 1026.4
20210119123412 35 46 8.0 16.0 0.00 0.00 0.00 56 1026.1
20210119122357 35 46 8.0 15.0 0.00 0.00 0.00 56 1026.0
20210119121351 35 32 7.0 14.0 0.00 0.00 0.00 57 1025.5
20210119120350 36 26 8.0 14.0 0.00 0.00 0.00 57 1025.4
20210119115333 36 12 7.0 15.0 0.00 0.00 0.00 57 1025.2
20210119114252 36 27 9.0 15.0 0.00 0.00 0.00 56 1025.3
20210119113257 37 42 7.0 13.0 0.00 0.00 0.00 57 1025.2
20210119112228 37 23 6.0 10.0 0.00 0.00 0.00 58 1024.8
20210119111256 37 86 6.0 10.0 0.00 0.00 0.00 57 1024.8
20210119110229 37 41 4.0 8.0 0.00 0.00 0.00 56 1024.7
20210119105242 37 20 4.0 8.0 0.00 0.00 0.00 57 1024.3
20210119104250 37 2 4.0 9.0 0.00 0.00 0.00 56 1024.0
20210119103222 38 46 3.0 9.0 0.00 0.00 0.00 55 1024.2
20210119102202 38 39 4.0 8.0 0.00 0.00 0.00 55 1024.1
20210119101231 38 349 4.0 9.0 0.00 0.00 0.00 55 1023.7
20210119100223 38 345 4.0 9.0 0.00 0.00 0.00 55 1023.8
20210119095248 38 65 4.0 8.0 0.00 0.00 0.00 56 1023.9
20210119094243 38 38 3.0 8.0 0.00 0.00 0.00 56 1024.1
20210119093255 38 36 4.0 8.0 0.00 0.00 0.00 56 1023.9
20210119092306 38 32 4.0 10.0 0.00 0.00 0.00 55 1023.9
20210119091320 39 41 5.0 10.0 0.00 0.00 0.00 54 1023.8
20210119090317 39 6 5.0 11.0 0.00 0.00 0.00 54 1023.8
20210119085233 39 34 5.0 13.0 0.00 0.00 0.00 54 1023.7
20210119084223 39 41 6.0 14.0 0.00 0.00 0.00 54 1023.4
20210119083206 39 2 6.0 14.0 0.00 0.00 0.00 54 1023.3
20210119082128 39 51 6.0 13.0 0.00 0.00 0.00 54 1023.3
20210119081112 39 64 7.0 13.0 0.00 0.00 0.00 54 1023.1
20210119080044 40 41 5.0 12.0 0.00 0.00 0.00 54 1022.9
20210119075041 40 56 6.0 12.0 0.00 0.00 0.00 54 1023.0
20210119074102 40 30 6.0 11.0 0.00 0.00 0.00 54 1022.8
20210119073119 40 356 6.0 12.0 0.00 0.00 0.00 54 1022.6
20210119072128 40 15 6.0 13.0 0.00 0.00 0.00 54 1022.6
20210119071129 40 21 6.0 13.0 0.00 0.00 0.00 54 1022.6
20210119070101 40 18 6.0 13.0 0.00 0.00 0.00 54 1022.4
20210119065114 40 307 6.0 13.0 0.00 0.00 0.00 54 1022.3
20210119064043 40 27 7.0 12.0 0.00 0.00 0.00 54 1022.3
20210119063043 40 59 6.0 11.0 0.00 0.00 0.00 54 1022.5
20210119062045 41 53 5.0 12.0 0.00 0.00 0.00 54 1022.6
20210119061021 41 27 7.0 12.0 0.00 0.00 0.00 54 1022.6
20210119060040 41 27 6.0 11.0 0.00 0.00 0.00 53 1022.2
20210119055036 41 10 6.0 14.0 0.00 0.00 0.00 53 1022.3
20210119054036 41 39 7.0 15.0 0.00 0.00 0.00 53 1022.3
20210119053021 41 7 7.0 16.0 0.00 0.00 0.00 53 1022.0
20210119051931 41 22 8.0 17.0 0.00 0.00 0.00 53 1021.6
20210119050902 41 4 8.0 17.0 0.00 0.00 0.00 53 1021.5
20210119045908 42 359 8.0 15.0 0.00 0.00 0.00 52 1021.5
20210119044905 42 27 7.0 15.0 0.00 0.00 0.00 50 1021.2
20210119043910 43 49 7.0 13.0 0.00 0.00 0.00 48 1021.2
20210119042837 43 29 8.0 15.0 0.00 0.00 0.00 48 1021.2
20210119041837 43 357 7.0 15.0 0.00 0.00 0.00 48 1021.2
20210119040859 43 43 7.0 15.0 0.00 0.00 0.00 48 1021.0
20210119035851 43 18 7.0 12.0 0.00 0.00 0.00 49 1020.7
20210119034900 42 349 7.0 15.0 0.00 0.00 0.00 49 1020.7
20210119033904 43 3 6.0 15.0 0.00 0.00 0.00 48 1020.5
20210119032917 43 39 6.0 12.0 0.00 0.00 0.00 46 1020.5
20210119031924 44 37 6.0 12.0 0.00 0.00 0.00 45 1020.0
20210119030849 44 57 5.0 15.0 0.00 0.00 0.00 45 1020.0
20210119025829 44 335 6.0 15.0 0.00 0.00 0.00 45 1019.9
20210119024834 44 36 8.0 14.0 0.00 0.00 0.00 46 1019.6
20210119023813 44 22 6.0 12.0 0.00 0.00 0.00 47 1019.4
20210119022757 44 351 6.0 11.0 0.00 0.00 0.00 46 1019.4
20210119021755 44 30 5.0 12.0 0.00 0.00 0.00 45 1019.0
20210119020742 44 45 6.0 12.0 0.00 0.00 0.00 45 1018.9
20210119015753 44 22 6.0 12.0 0.00 0.00 0.00 44 1018.7
20210119014818 45 18 6.0 11.0 0.00 0.00 0.00 44 1018.9
20210119013818 45 356 6.0 10.0 0.00 0.00 0.00 43 1019.0
20210119012815 45 26 6.0 13.0 0.00 0.00 0.00 43 1018.7
20210119011757 45 352 8.0 18.0 0.00 0.00 0.00 43 1018.3
20210119010820 45 47 8.0 18.0 0.00 0.00 0.00 42 1018.4
20210119005802 45 14 7.0 13.0 0.00 0.00 0.00 42 1018.2
20210119004749 45 37 7.0 12.0 0.00 0.00 0.00 42 1018.1
20210119003738 46 9 6.0 12.0 0.00 0.00 0.00 42 1018.0
20210119002751 46 25 6.0 15.0 0.00 0.00 0.00 42 1017.8
20210119001752 46 27 6.0 15.0 0.00 0.00 0.00 41 1017.6
20210119000745 46 11 6.0 14.0 0.00 0.00 0.00 41 1017.5
20210118235750 46 15 7.0 14.0 0.00 0.00 0.00 41 1017.1
20210118234720 46 23 7.0 14.0 0.00 0.00 0.00 40 1017.0
20210118233726 46 20 7.0 14.0 0.00 0.00 0.00 40 1016.9
20210118232723 47 11 7.0 13.0 0.00 0.00 0.00 40 1016.8
20210118231736 47 31 7.0 17.0 0.00 0.00 0.00 40 1016.5
20210118230744 47 53 9.0 17.0 0.00 0.00 0.00 40 1016.0
20210118225753 47 27 9.0 16.0 0.00 0.00 0.00 40 1015.8
20210118224745 48 34 8.0 16.0 0.00 0.00 0.00 39 1015.4
20210118223746 48 19 8.0 17.0 0.00 0.00 0.00 38 1015.2
20210118222717 48 352 9.0 17.0 0.00 0.00 0.00 37 1015.4
20210118221645 49 20 10.0 17.0 0.00 0.00 0.00 38 1015.2
20210118220625 49 24 9.0 17.0 0.00 0.00 0.00 38 1015.0
20210118215559 49 1 9.0 17.0 0.00 0.00 0.00 38 1015.0
20210118214623 50 23 9.0 21.0 0.00 0.00 0.00 37 1014.8
20210118213556 50 25 10.0 21.0 0.00 0.00 0.00 35 1014.7
20210118212559 50 31 9.0 19.0 0.00 0.00 0.00 38 1014.7
20210118211621 50 21 8.0 19.0 0.00 0.00 0.00 36 1014.9
20210118210630 49 30 10.0 18.0 0.00 0.00 0.00 39 1014.8
20210118205652 50 29 10.0 21.0 0.00 0.00 0.00 38 1014.7
20210118204655 50 338 8.0 21.0 0.00 0.00 0.00 38 1014.4
20210118203652 50 22 10.0 23.0 0.00 0.00 0.00 40 1014.3
20210118202652 49 46 11.0 23.0 0.00 0.00 0.00 42 1014.2
20210118201620 49 23 12.0 20.0 0.00 0.00 0.00 43 1014.2
20210118200546 48 6 12.0 20.0 0.00 0.00 0.00 43 1014.2
20210118195537 48 8 12.0 19.0 0.00 0.00 0.00 44 1014.2
20210118194538 48 25 11.0 21.0 0.00 0.00 0.00 44 1014.2
20210118193516 47 319 12.0 21.0 0.00 0.00 0.00 47 1014.0
20210118192533 46 25 11.0 20.0 0.00 0.00 0.00 48 1013.9
20210118191517 45 25 11.0 20.0 0.00 0.00 0.00 49 1013.7
20210118190535 45 6 12.0 20.0 0.00 0.00 0.00 49 1013.7
20210118185519 45 26 10.0 20.0 0.00 0.00 0.00 48 1014.1